Location: Cassano d�Adda
(45.5333°N, 9.5167°E)
Time: 04:13:53
(UTC+00:00)

Cosmos 1812 - Pass Details

Date: 08 December 2019
Orbit: 516 x 523 km, 82.5° (Epoch: 19 January)

Event Time Altitude Azimuth Distance (km) Brightness Sun altitude
Rises 16:25:56 0° 169° (S) 2,639 6.5 -8.2°
Reaches altitude 10° 16:28:08 10° 161° (SSE) 1,756 5.5 -8.5°
Maximum altitude 16:31:44 39° 93° (E) 804 3.2 -9.1°
Drops below altitude 10° 16:35:22 10° 24° (NNE) 1,772 5.0 -9.7°
Enters shadow 16:36:49 - 18° (NNE) 2,349 5.6 -9.9°
